{"data":{"norad_id":62844,"intl_designator":"2025-019R","name":"STARLINK-32794","alt_names":[],"object_type":"PAYLOAD","status":"ACTIVE","operator":null,"country":"US","launch_date":"2025-01-27","launch_site_code":"AFETR","launch_vehicle":null,"mission":null,"orbit_class":"UNKNOWN","rcs_meters":null,"size_class":null,"mass_kg":null,"dimensions":null,"purposes":["comms"],"wikipedia_slug":null,"has_3d_model":false,"image_url":null,"decayed_at":null,"tle_current":{"epoch":"2026-09-20T18:37:10.862688Z","epoch_age_seconds":144367,"freshness":"FRESH","line1":"1 62844U 25019R   26263.77582017  .00014993  00000+0  55310-3 0  9999","line2":"2 62844  43.0027  67.5099 0000278  60.0789 300.0090 15.27588330 92088","mean_motion":15.2758833,"eccentricity":2.78e-5,"inclination_deg":43.0027,"raan_deg":67.5099,"arg_perigee_deg":60.0789,"mean_anomaly_deg":300.009,"bstar":0.0005531,"rev_number":9208,"period_min":94.266234673317,"perigee_km":482.83341285624,"apogee_km":483.21489341635,"semimajor_km":6861.1611531363,"source":"CELESTRAK","updated_at":"2026-09-22T09:00:49.674083Z"}}}